GW5113 Weather Reports


time (UTC)temp
C
wind
direction
speed
KPH
gust
KPH
rain 1hr
cm
rain 24hr
cm
rain mn
cm
humidity
%
barometer
mb
20260510203426 20 213 0.0 6.4 0.00 0.00 0.00 68 1017.5
20260510202926 20 124 0.0 4.8 0.00 0.00 0.00 69 1017.6
20260510202422 20 108 1.6 3.2 0.00 0.00 0.00 72 1017.6
20260510201918 21 64 4.8 4.8 0.00 0.00 0.00 68 1017.8
20260510201416 20 227 1.6 4.8 0.00 0.00 0.00 70 1017.7
20260510200912 20 125 1.6 3.2 0.00 0.00 0.00 72 1017.8
20260510200412 21 185 3.2 6.4 0.00 0.00 0.00 69 1017.7
20260510195906 21 317 3.2 6.4 0.00 0.00 0.00 70 1017.7
20260510195403 21 257 1.6 6.4 0.00 0.00 0.00 70 1017.6
20260510194857 20 62 9.7 12.9 0.00 0.00 0.00 70 1017.9
20260510194354 20 90 3.2 3.2 0.00 0.00 0.00 70 1017.6
20260510193850 21 36 1.6 6.4 0.00 0.00 0.00 70 1017.7
20260510193345 21 135 4.8 11.3 0.00 0.00 0.00 71 1017.7
20260510192841 20 75 3.2 11.3 0.00 0.00 0.00 72 1017.9
20260510192337 20 65 3.2 9.7 0.00 0.00 0.00 74 1017.7
20260510191833 21 180 4.8 11.3 0.00 0.00 0.00 72 1017.9
20260510191329 21 54 8.0 11.3 0.00 0.00 0.00 72 1017.8
20260510190827 21 67 0.0 4.8 0.00 0.00 0.00 73 1017.8
20260510190325 20 133 1.6 3.2 0.00 0.00 0.00 74 1018.0
20260510185820 19 172 0.0 3.2 0.00 0.00 0.00 77 1017.9
20260510185319 20 119 1.6 14.5 0.00 0.00 0.00 75 1017.9
20260510184815 20 94 4.8 6.4 0.00 0.00 0.00 73 1018.0
20260510184312 20 53 4.8 11.3 0.00 0.00 0.00 75 1017.8
20260510183806 21 283 1.6 12.9 0.00 0.00 0.00 75 1017.6
20260510183301 21 286 0.0 1.6 0.00 0.00 0.00 73 1017.7
20260510182758 21 155 0.0 4.8 0.00 0.00 0.00 75 1017.7
20260510182254 20 262 1.6 3.2 0.00 0.00 0.00 76 1017.6
20260510181751 19 117 3.2 4.8 0.00 0.00 0.00 77 1017.6
20260510181248 19 103 3.2 9.7 0.00 0.00 0.00 77 1017.7
20260510180744 20 47 3.2 9.7 0.00 0.00 0.00 76 1017.3
20260510180241 20 62 6.4 6.4 0.00 0.00 0.00 75 1017.5
20260510175738 19 118 3.2 6.4 0.00 0.00 0.00 78 1017.4
20260510175233 19 65 4.8 6.4 0.00 0.00 0.00 78 1017.6
20260510174731 18 122 1.6 9.7 0.00 0.00 0.00 79 1017.6
20260510174228 19 19 0.0 4.8 0.00 0.00 0.00 78 1017.7
20260510173724 18 71 1.6 3.2 0.00 0.00 0.00 78 1017.5
20260510173220 18 84 1.6 3.2 0.00 0.00 0.00 77 1017.5
20260510172715 18 52 1.6 3.2 0.00 0.00 0.00 79 1017.3
20260510172212 18 68 1.6 4.8 0.00 0.00 0.00 80 1017.4
20260510171709 18 93 1.6 1.6 0.00 0.00 0.00 80 1017.5
20260510171206 18 78 3.2 6.4 0.00 0.00 0.00 80 1017.4
20260510170703 18 63 3.2 6.4 0.00 0.00 0.00 79 1017.4
20260510170159 18 134 0.0 4.8 0.00 0.00 0.00 79 1017.6
20260510165655 18 103 1.6 4.8 0.00 0.00 0.00 78 1017.5
20260510165151 18 60 1.6 4.8 0.00 0.00 0.00 77 1017.3
20260510164649 18 116 3.2 4.8 0.00 0.00 0.00 74 1017.5
20260510164146 20 157 1.6 6.4 0.00 0.00 0.00 74 1017.4
20260510163636 19 283 1.6 4.8 0.00 0.00 0.00 76 1017.2
20260510163131 19 113 3.2 4.8 0.00 0.00 0.00 75 1017.4
20260510162626 19 114 3.2 3.2 0.00 0.00 0.00 75 1017.4
20260510162123 18 212 0.0 1.6 0.00 0.00 0.00 75 1017.3
20260510161619 18 100 0.0 1.6 0.00 0.00 0.00 78 1017.2
20260510161116 18 191 0.0 3.2 0.00 0.00 0.00 75 1017.3
20260510160613 18 38 4.8 4.8 0.00 0.00 0.00 75 1017.1
20260510160113 18 162 0.0 0.0 0.00 0.00 0.00 79 1017.1
20260510155609 18 100 0.0 3.2 0.00 0.00 0.00 75 1017.1
20260510155105 18 92 1.6 3.2 0.00 0.00 0.00 75 1017.4
20260510154601 19 263 0.0 1.6 0.00 0.00 0.00 76 1017.1
20260510154057 18 150 0.0 0.0 0.00 0.00 0.00 74 1016.8
20260510153557 19 141 0.0 0.0 0.00 0.00 0.00 72 1017.2
20260510153054 20 40 0.0 1.6 0.00 0.00 0.00 70 1017.1
20260510152551 20 175 0.0 3.2 0.00 0.00 0.00 68 1016.9
20260510152047 20 103 0.0 1.6 0.00 0.00 0.00 68 1017.0
20260510151543 20 247 0.0 0.0 0.00 0.00 0.00 68 1016.9
20260510151041 20 26 0.0 6.4 0.00 0.00 0.00 67 1017.1
20260510150536 21 292 1.6 4.8 0.00 0.00 0.00 65 1017.2
20260510150032 21 70 1.6 3.2 0.00 0.00 0.00 65 1017.1
20260510145529 20 351 1.6 3.2 0.00 0.00 0.00 67 1017.0
20260510145026 20 140 0.0 3.2 0.00 0.00 0.00 64 1017.1
20260510144522 21 64 3.2 3.2 0.00 0.00 0.00 65 1016.9
20260510144019 21 313 1.6 3.2 0.00 0.00 0.00 65 1017.1
20260510143514 20 115 0.0 3.2 0.00 0.00 0.00 66 1017.0
20260510143011 20 47 0.0 3.2 0.00 0.00 0.00 71 1016.9
20260510142507 19 48 0.0 3.2 0.00 0.00 0.00 71 1016.8
20260510142004 20 36 1.6 6.4 0.00 0.00 0.00 68 1017.0
20260510141500 20 93 1.6 3.2 0.00 0.00 0.00 70 1016.7
20260510140958 20 9 1.6 3.2 0.00 0.00 0.00 70 1016.8
20260510140454 20 9 0.0 3.2 0.00 0.00 0.00 72 1016.9
20260510135953 20 9 0.0 1.6 0.00 0.00 0.00 70 1016.9
20260510135449 19 267 0.0 6.4 0.00 0.00 0.00 69 1016.8
20260510134946 18 274 1.6 1.6 0.00 0.00 0.00 74 1016.7
20260510134443 18 353 0.0 1.6 0.00 0.00 0.00 72 1016.7
20260510133940 18 300 1.6 3.2 0.00 0.00 0.00 73 1016.5
20260510133436 19 322 3.2 4.8 0.00 0.00 0.00 72 1016.5
20260510132931 18 55 3.2 4.8 0.00 0.00 0.00 71 1016.4
20260510132429 18 83 1.6 6.4 0.00 0.00 0.00 75 1016.6
20260510131926 18 33 0.0 3.2 0.00 0.00 0.00 79 1016.6
20260510131424 17 244 1.6 4.8 0.00 0.00 0.00 76 1016.7
20260510130920 17 183 0.0 1.6 0.00 0.00 0.00 77 1016.9
20260510130417 17 176 0.0 3.2 0.00 0.00 0.00 80 1016.7
20260510125914 17 113 0.0 3.2 0.00 0.00 0.00 82 1016.6
20260510125405 16 63 1.6 1.6 0.00 0.00 0.00 83 1016.6
20260510124902 16 10 0.0 1.6 0.00 0.00 0.00 84 1016.7
20260510124358 15 10 1.6 1.6 0.00 0.00 0.00 85 1016.7
20260510123854 15 9 0.0 1.6 0.00 0.00 0.00 85 1016.8
20260510123350 16 10 3.2 3.2 0.00 0.00 0.00 85 1016.6
20260510122846 15 11 0.0 3.2 0.00 0.00 0.00 90 1016.6
20260510122342 15 11 0.0 0.0 0.00 0.00 0.00 94 1016.6
20260510121839 13 11 0.0 1.6 0.00 0.00 0.00 96 1016.8
20260510121337 13 11 0.0 1.6 0.00 0.00 0.00 99 1016.6
20260510120834 13 11 0.0 1.6 0.00 0.00 0.00 99 1016.5
20260510120331 13 10 0.0 0.0 0.00 0.00 0.00 99 1016.5
20260510115826 13 10 0.0 0.0 0.00 0.00 0.00 99 1016.3
20260510115323 13 10 0.0 0.0 0.00 0.00 0.00 99 1016.3
20260510114818 12 11 0.0 0.0 0.00 0.00 0.00 99 1016.3
20260510114316 12 10 0.0 0.0 0.00 0.00 0.00 99 1016.3
20260510113811 12 10 0.0 0.0 0.00 0.00 0.00 99 1016.1
20260510113309 12 10 0.0 0.0 0.00 0.00 0.00 99 1015.9
20260510112805 12 10 0.0 0.0 0.00 0.00 0.00 99 1015.8
20260510112305 11 10 0.0 0.0 0.00 0.00 0.00 99 1015.5
20260510111758 11 10 0.0 0.0 0.00 0.00 0.00 99 1015.5
20260510111255 10 10 0.0 0.0 0.00 0.00 0.00 99 1015.5
20260510110754 10 10 0.0 0.0 0.00 0.00 0.00 99 1015.5
20260510110253 10 10 0.0 0.0 0.00 0.00 0.00 99 1015.3
20260510105753 10 10 0.0 0.0 0.00 0.00 0.00 99 1015.3
20260510105247 10 10 0.0 0.0 0.00 0.00 0.00 99 1015.2
20260510104744 10 10 0.0 0.0 0.00 0.00 0.00 99 1015.3
20260510104242 10 10 0.0 0.0 0.00 0.00 0.00 99 1015.1
20260510103738 10 10 0.0 0.0 0.00 0.00 0.00 99 1015.2
20260510103235 10 10 0.0 0.0 0.00 0.00 0.00 99 1015.1
20260510102734 10 10 0.0 0.0 0.00 0.00 0.00 99 1015.2
20260510102230 9 10 0.0 0.0 0.00 0.00 0.00 99 1015.1
20260510101728 9 10 0.0 0.0 0.00 0.00 0.00 99 1015.1
20260510101227 9 10 0.0 0.0 0.00 0.00 0.00 99 1015.1
20260510100722 8 10 0.0 0.0 0.00 0.00 0.00 99 1015.0
20260510100221 9 10 0.0 0.0 0.00 0.00 0.00 99 1014.7
20260510095721 8 10 0.0 0.0 0.00 0.00 0.00 99 1014.8
20260510095216 8 10 0.0 0.0 0.00 0.00 0.00 99 1014.6
20260510094715 8 10 0.0 0.0 0.00 0.00 0.00 99 1014.7
20260510094211 9 10 0.0 0.0 0.00 0.00 0.00 99 1014.6
20260510093707 9 10 0.0 0.0 0.00 0.00 0.00 99 1014.3
20260510093204 9 10 0.0 0.0 0.00 0.00 0.00 99 1014.3
20260510092700 9 10 0.0 0.0 0.00 0.00 0.00 99 1014.4
20260510092156 9 10 0.0 0.0 0.00 0.00 0.00 99 1014.2
20260510091652 9 10 0.0 0.0 0.00 0.00 0.00 99 1014.2
20260510091148 9 10 0.0 0.0 0.00 0.00 0.00 99 1014.2
20260510090645 9 10 0.0 0.0 0.00 0.00 0.00 99 1013.9
20260510090142 9 10 0.0 0.0 0.00 0.00 0.00 99 1014.0
20260510085637 9 10 0.0 0.0 0.00 0.00 0.00 99 1014.1
20260510085132 9 10 0.0 0.0 0.00 0.00 0.00 99 1014.0
20260510084629 9 10 0.0 0.0 0.00 0.00 0.00 99 1013.9
20260510084126 10 10 0.0 0.0 0.00 0.00 0.00 99 1013.9
20260510083622 9 10 0.0 0.0 0.00 0.00 0.00 99 1013.9
20260510083120 9 10 0.0 0.0 0.00 0.00 0.00 99 1014.0
20260510082616 9 10 0.0 0.0 0.00 0.00 0.00 99 1014.0
20260510082112 10 10 0.0 0.0 0.00 0.00 0.00 99 1013.8
20260510081611 10 10 0.0 0.0 0.00 0.00 0.00 99 1013.8
20260510081108 10 10 0.0 0.0 0.00 0.00 0.00 99 1013.9
20260510080607 10 10 0.0 0.0 0.00 0.00 0.00 99 1013.9
20260510080104 10 11 0.0 0.0 0.00 0.00 0.00 99 1013.6
20260510075601 10 11 0.0 0.0 0.00 0.00 0.00 99 1013.7
20260510075058 10 11 0.0 0.0 0.00 0.00 0.00 99 1013.5
20260510074555 10 11 0.0 0.0 0.00 0.00 0.00 99 1013.6
20260510074050 10 11 0.0 0.0 0.00 0.00 0.00 99 1013.6
20260510073547 10 11 0.0 1.6 0.00 0.00 0.00 99 1013.6
20260510073044 10 11 0.0 0.0 0.00 0.00 0.00 99 1013.8
20260510072541 10 11 0.0 0.0 0.00 0.00 0.00 99 1013.3
20260510072036 10 10 0.0 0.0 0.00 0.00 0.00 99 1013.8
20260510071533 10 11 0.0 0.0 0.00 0.00 0.00 99 1013.6
20260510071031 10 11 0.0 0.0 0.00 0.00 0.00 99 1013.8
20260510070527 10 11 0.0 0.0 0.00 0.00 0.00 99 1013.7
20260510070024 10 11 0.0 0.0 0.00 0.00 0.00 99 1013.7
20260510065521 10 11 0.0 0.0 0.00 0.00 0.00 99 1013.5
20260510065017 10 10 0.0 0.0 0.00 0.00 0.00 99 1013.7
20260510064514 10 10 0.0 0.0 0.00 0.00 0.00 99 1013.8
20260510064010 10 10 0.0 0.0 0.00 0.00 0.00 99 1013.8
20260510063507 10 10 0.0 0.0 0.00 0.00 0.00 99 1013.7
20260510063005 10 10 0.0 0.0 0.00 0.00 0.00 99 1013.6
20260510062500 10 10 0.0 0.0 0.00 0.00 0.00 99 1013.8
20260510061955 10 10 0.0 0.0 0.00 0.00 0.00 99 1013.7
20260510061452 10 10 0.0 0.0 0.00 0.00 0.00 99 1013.7
20260510060949 10 10 0.0 0.0 0.00 0.00 0.00 99 1013.7
20260510060446 10 11 0.0 0.0 0.00 0.00 0.00 99 1013.8
20260510055942 10 11 0.0 0.0 0.00 0.00 0.00 99 1014.0
20260510055438 10 10 0.0 0.0 0.00 0.00 0.00 99 1014.0
20260510054936 10 10 0.0 0.0 0.00 0.00 0.00 99 1013.8
20260510054431 10 11 0.0 0.0 0.00 0.00 0.00 99 1014.1
20260510053926 10 10 0.0 0.0 0.00 0.00 0.00 99 1014.0
20260510053422 10 10 0.0 0.0 0.00 0.00 0.00 99 1014.0
20260510052918 10 10 0.0 0.0 0.00 0.00 0.00 99 1014.2
20260510052414 10 10 0.0 0.0 0.00 0.00 0.00 99 1014.3
20260510051911 10 10 0.0 0.0 0.00 0.00 0.00 99 1014.1
20260510051408 10 11 0.0 0.0 0.00 0.00 0.00 99 1014.2
20260510050904 10 10 0.0 0.0 0.00 0.00 0.00 99 1014.1
20260510050401 10 11 0.0 0.0 0.00 0.00 0.00 99 1014.2
20260510045858 10 11 0.0 0.0 0.00 0.00 0.00 99 1014.3
20260510045354 10 10 0.0 0.0 0.00 0.00 0.00 99 1014.0
20260510044851 10 10 0.0 0.0 0.00 0.00 0.00 99 1014.1
20260510044348 10 11 0.0 0.0 0.00 0.00 0.00 99 1014.1
20260510043845 10 11 0.0 0.0 0.00 0.00 0.00 99 1014.1
20260510043341 10 10 0.0 0.0 0.00 0.00 0.00 99 1014.0
20260510042839 10 11 0.0 0.0 0.00 0.00 0.00 99 1014.2
20260510042335 10 11 0.0 0.0 0.00 0.00 0.00 99 1014.2
20260510041831 10 10 0.0 0.0 0.00 0.00 0.00 99 1014.0
20260510041329 10 11 0.0 0.0 0.00 0.00 0.00 99 1014.0
20260510040826 10 11 0.0 0.0 0.00 0.00 0.00 99 1014.0
20260510040322 10 11 0.0 0.0 0.00 0.00 0.00 99 1013.9
20260510035818 10 11 0.0 0.0 0.00 0.00 0.00 99 1014.1
20260510035314 10 11 0.0 0.0 0.00 0.00 0.00 99 1014.0
20260510034810 10 10 0.0 0.0 0.00 0.00 0.00 99 1014.2
20260510034307 10 11 0.0 0.0 0.00 0.00 0.00 99 1014.1
20260510033803 10 11 0.0 0.0 0.00 0.00 0.00 99 1014.0
20260510033301 10 11 0.0 0.0 0.00 0.00 0.00 99 1014.0
20260510032757 10 11 0.0 0.0 0.00 0.00 0.00 99 1013.9
20260510032253 10 11 0.0 0.0 0.00 0.00 0.00 99 1013.8
20260510031749 10 11 0.0 0.0 0.00 0.00 0.00 99 1013.7
20260510031245 10 10 0.0 0.0 0.00 0.00 0.00 99 1013.8
20260510030739 10 10 0.0 0.0 0.00 0.00 0.00 99 1013.8
20260510030236 10 11 0.0 0.0 0.00 0.00 0.00 99 1013.7
20260510025734 10 10 0.0 0.0 0.00 0.00 0.00 99 1013.6
20260510025231 10 10 0.0 0.0 0.00 0.00 0.00 99 1013.6
20260510024722 10 10 0.0 0.0 0.00 0.00 0.00 99 1013.5
20260510024218 10 10 0.0 0.0 0.00 0.00 0.00 99 1013.5
20260510023714 11 10 0.0 0.0 0.00 0.00 0.00 99 1013.5
20260510023211 11 10 0.0 0.0 0.00 0.00 0.00 99 1013.3
20260510022707 11 11 0.0 0.0 0.00 0.00 0.00 99 1013.6
20260510022202 11 10 0.0 0.0 0.00 0.00 0.00 99 1013.3
20260510021657 11 10 0.0 0.0 0.00 0.00 0.00 99 1013.3
20260510021155 11 11 0.0 0.0 0.00 0.00 0.00 99 1013.2
20260510020655 11 11 0.0 0.0 0.00 0.00 0.00 98 1013.2
20260510020151 11 10 0.0 0.0 0.00 0.00 0.00 98 1013.2
20260510015647 11 11 0.0 0.0 0.00 0.00 0.00 98 1013.0
20260510015144 11 11 0.0 0.0 0.00 0.00 0.00 98 1013.1
20260510014638 11 11 0.0 0.0 0.00 0.00 0.00 98 1012.9
20260510014136 11 10 0.0 0.0 0.00 0.00 0.00 97 1012.7
20260510013631 11 11 0.0 0.0 0.00 0.00 0.00 97 1012.6
20260510013127 11 11 0.0 0.0 0.00 0.00 0.00 97 1012.4
20260510012626 11 10 0.0 0.0 0.00 0.00 0.00 97 1012.4
20260510012123 12 10 0.0 0.0 0.00 0.00 0.00 96 1012.3
20260510011622 12 11 0.0 0.0 0.00 0.00 0.00 95 1012.2
20260510011118 12 11 0.0 0.0 0.00 0.00 0.00 95 1012.3
20260510010615 12 11 0.0 0.0 0.00 0.00 0.00 94 1012.3
20260510010112 12 11 0.0 0.0 0.00 0.00 0.00 94 1012.2
20260510005607 12 11 0.0 0.0 0.00 0.00 0.00 93 1012.2
20260510005105 12 11 0.0 0.0 0.00 0.00 0.00 93 1012.1
20260510004603 13 11 0.0 0.0 0.00 0.00 0.00 92 1012.3
20260510004101 13 11 0.0 0.0 0.00 0.00 0.00 91 1011.9
20260510003557 13 11 0.0 0.0 0.00 0.00 0.00 91 1012.0
20260510003053 13 11 0.0 0.0 0.00 0.00 0.00 89 1011.8
20260510002548 13 11 0.0 0.0 0.00 0.00 0.00 88 1011.9
20260510002046 14 11 0.0 0.0 0.00 0.00 0.00 88 1011.7
20260510001543 14 10 0.0 0.0 0.00 0.00 0.00 87 1011.6
20260510001042 14 11 0.0 0.0 0.00 0.00 0.00 86 1011.8
20260510000537 15 11 0.0 0.0 0.00 0.00 0.00 87 1011.6
20260510000034 15 11 0.0 0.0 0.00 0.00 0.00 85 1011.5
20260509235530 15 11 0.0 0.0 0.00 0.00 0.00 83 1011.5
20260509235027 15 11 0.0 0.0 0.00 0.00 0.00 83 1011.3
20260509234523 15 11 0.0 0.0 0.00 0.00 0.00 83 1011.5
20260509234021 16 11 0.0 0.0 0.00 0.00 0.00 84 1011.5
20260509233518 16 11 0.0 0.0 0.00 0.00 0.00 83 1011.2
20260509233015 16 11 0.0 0.0 0.00 0.00 0.00 79 1011.1
20260509232512 16 10 0.0 0.0 0.00 0.00 0.00 80 1011.3
20260509232009 16 10 0.0 0.0 0.00 0.00 0.00 78 1011.3
20260509231505 17 10 0.0 0.0 0.00 0.00 0.00 78 1011.4
20260509231003 17 10 0.0 1.6 0.00 0.00 0.00 76 1011.3
20260509230459 17 10 0.0 0.0 0.00 0.00 0.00 77 1011.2
20260509225956 17 10 0.0 0.0 0.00 0.00 0.00 75 1011.0
20260509225452 18 10 0.0 1.6 0.00 0.00 0.00 76 1011.2
20260509224948 18 11 1.6 1.6 0.00 0.00 0.00 73 1011.1
20260509224443 19 10 0.0 1.6 0.00 0.00 0.00 71 1011.3
20260509223941 20 12 1.6 1.6 0.00 0.00 0.00 66 1011.0
20260509223437 21 12 0.0 1.6 0.00 0.00 0.00 61 1011.2
20260509222935 21 12 0.0 1.6 0.00 0.00 0.00 61 1011.3
20260509222430 21 12 1.6 1.6 0.00 0.00 0.00 60 1011.3
20260509221926 21 13 0.0 3.2 0.00 0.00 0.00 58 1011.5
20260509221423 22 12 1.6 1.6 0.00 0.00 0.00 57 1011.5
20260509220918 21 13 1.6 3.2 0.00 0.00 0.00 59 1011.7
20260509220415 22 34 3.2 3.2 0.00 0.00 0.00 54 1011.7
20260509215911 21 89 0.0 1.6 0.00 0.00 0.00 58 1011.7
20260509215406 21 103 0.0 4.8 0.00 0.00 0.00 57 1011.6
20260509214904 21 1 3.2 3.2 0.00 0.00 0.00 62 1011.6
20260509214401 20 1 0.0 1.6 0.00 0.00 0.00 62 1011.6
20260509213858 21 0 0.0 1.6 0.00 0.00 0.00 61 1011.7
20260509213354 21 0 4.8 9.7 0.00 0.00 0.00 57 1011.6
20260509212851 21 36 1.6 4.8 0.00 0.00 0.00 61 1011.7
20260509212343 20 12 0.0 0.0 0.00 0.00 0.00 63 1011.7
20260509211839 20 273 3.2 3.2 0.00 0.00 0.00 59 1011.6
20260509211335 22 314 3.2 4.8 0.00 0.00 0.00 58 1011.5
20260509210831 21 305 1.6 3.2 0.00 0.00 0.00 55 1011.6
20260509210329 21 93 6.4 6.4 0.00 0.00 0.00 54 1011.7
20260509205828 21 101 0.0 1.6 0.00 0.00 0.00 59 1011.8
20260509205323 21 153 0.0 3.2 0.00 0.00 0.00 62 1011.8
20260509204820 21 342 0.0 3.2 0.00 0.00 0.00 60 1011.8
20260509204316 21 163 0.0 3.2 0.00 0.00 0.00 58 1011.6
20260509203813 20 8 1.6 3.2 0.00 0.00 0.00 57 1011.6